Horyu-4 (41340 NORAD) Tracking and Keplerian Element Data

This shows tracking and keplerian element data for the satellite.

Feedback or suggestion? Click here.




ElementValue
Catalog41340
NameHoryu-4
Epoch Orbit47598
Epoch Day286.39164462
Epoch Year2024
RAAN289.1048
Inclination31.0019
Eccentricity0.0007768
Argument of Perigee99.5765
Mean Anonmoly260.5755
Mean Motion15.21899561
Decay Rate0.00033329
L11 41340U 16012D 24286.39164462 .00033329 00000-0 14143-2 0 9994
L22 41340 31.0019 289.1048 0007768 99.5765 260.5755 15.21899561475989



Live tracking and technical data element details for Horyu-4 (NORAD 41340). Horyu-4 can be tracked NOW for your location showing map with azimuth and elevation plus other details from your city location.







IsCatalogInMostPopularTable: catalog: 41340, numindb: 582
Update: records affected: 1



GetName: 41340 Horyu-4

Hit Count: updated at: Thu, 23 Jan 2025 18:01:43 GMT